Regional Weather Roundup
Issued by NWS

Home | Current Version | Previous Version | Text Only | Print | Product List | Glossary On
Versions: 1 2 3 4 5 6 7 8 9 10 11 12 13 14 15 16 17 18 19 20 21 22 23 24 25 26 27 28 29 30 31 32 33 34 35 36 37 38 39 40 41 42 43 44 45 46 47 48 49 50
000
ASUS46 KSTO 281115
RWRCA

NORTHERN AND CENTRAL CA REGIONAL WEATHER ROUNDUP
NATIONAL WEATHER SERVICE SACRAMENTO CA
400 AM PDT TUE MAR 28 2017

NOTE: FAIR INDICATES FEW OR NO CLOUDS BELOW 12,000 FEET WITH NO
SIGNIFICANT WEATHER AND/OR OBSTRUCTIONS TO VISIBILITY.

CAZ001-003-281200-
NORTHWEST AREA

CITY           SKY/WX    TMP DP  RH WIND       PRES   REMARKS
CRESCENT CITY  CLOUDY    47  43  86 NE5       30.40S
UKIAH          CLEAR     42  40  92 CALM      30.27F
$$

CAZ006-505>513-281200-
BAY AREA

CITY           SKY/WX    TMP DP  RH WIND       PRES   REMARKS
SANTA ROSA     CLEAR     46  42  86 NE7       30.22F
SAN RAFAEL     N/A       48  MM  MM MISG
NAPA           CLEAR     47  42  83 NW6       30.21F
CONCORD        CLEAR     48  45  89 CALM      30.22S
OAKLAND CITY   N/A      MM  MM  MM MISG
OAKLAND        CLEAR     53  45  74 CALM      30.22S
SAN FRAN CITY  N/A       51  MM  78 MISG
SAN FRAN ARPT  PTCLDY    50  44  80 W9        30.23R
LIVERMORE      CLEAR     45  41  86 CALM      30.20S
HAYWARD        CLEAR     48  40  73 E3        30.21S
REDWOOD CITY   N/A       45  MM  91 MISG
MOFFETT ARPT   CLEAR     50  44  80 CALM      30.22S
SAN JOSE ARPT  CLEAR     50  43  77 CALM      30.22F
$$
CAZ034-037-514>518-281200-
CENTRAL COAST

CITY           SKY/WX    TMP DP  RH WIND       PRES   REMARKS
WATSONVILLE    CLEAR     45  45 100 NW3       30.20S
SALINAS        CLEAR     49  45  86 N3        30.18F
MONTEREY       PTCLDY    50  46  86 S6        30.20F
SAN LUIS OBISP CLEAR     54  44  69 N15       30.15F
SANTA MARIA    CLEAR     47  44  90 NW7       30.13F
$$
CAZ015-016-281200-
NORTHERN SACRAMENTO VALLEY

CITY           SKY/WX    TMP DP  RH WIND       PRES   REMARKS
REDDING        PTCLDY    49  42  77 N6        30.25S
RED BLUFF      CLEAR     48  40  73 N8        30.25S
OROVILLE       CLEAR     49  40  71 N5        30.20F
$$
CAZ016>018-281200-
SOUTHERN SACRAMENTO VALLEY

CITY           SKY/WX    TMP DP  RH WIND       PRES   REMARKS
AUBURN         PTCLDY    52  32  46 NE3       30.16F
BEALE AFB      PTCLDY    46  42  86 NW12      30.16F
LINCOLN        FAIR      46  43  87 N8        30.16F
MARYSVILLE     CLEAR     52  40  63 N13       30.18F
SAC INTL ARPT  CLEAR     51  44  77 NW14      30.17S
MATHER AIRPORT CLEAR     50  43  76 N7        30.16S
DOWNTOWN SAC   N/A       52  MM  MM MISG
SAC EXEC ARPT  CLEAR     51  43  74 NW8       30.17F
TRAVIS AFB     CLEAR     50  45  81 W9        30.21S
$$
CAZ019>021-281200-
SAN JOAQUIN VALLEY

CITY           SKY/WX    TMP DP  RH WIND       PRES   REMARKS
STOCKTON       CLEAR     52  43  71 NW13      30.16S
MODESTO        CLEAR     53  43  68 NW9G20    30.15S
MERCED         CLEAR     48  43  82 N5        30.13F
LEMOORE        CLEAR     43  39  86 N8        30.15F
FRESNO         CLEAR     48  42  80 N5        30.15F
HANFORD        CLEAR     44  43  96 NW5       30.15F
PORTERVILLE    CLEAR     41  40  96 SE7       30.16F
BAKERSFIELD    CLEAR     50  43  77 E5        30.16F
$$
CAZ011-012-071-281200-
NORTHERN MOUNTAINS

CITY           SKY/WX    TMP DP  RH WIND       PRES   REMARKS
YREKA          CLOUDY    34  32  92 N3        30.34S
MOUNT SHASTA   PTCLDY    39  31  72 VRB7G16   30.27F WCI  34
ALTURAS        MOCLDY    27  25  92 CALM      30.29S
$$
CAZ011-012-071-281200-
SIERRA NEVADA MTNS

CITY           SKY/WX    TMP DP  RH WIND       PRES   REMARKS
BLUE CANYON    PTCLDY    37  19  48 NE7       30.15F WCI  32
TRUCKEE        CLEAR     23  21  93 SW3       30.22F
TAHOE VLY ARPT PTCLDY    27  23  85 S3        30.20F
MAMMOTH LAKES  FAIR      25  16  68 W9        30.21S WCI  15
$$




USA.gov is the U.S. government's official web portal to all federal, state and local government web resources and services.